"Pseudo-MPEC" for C03GTE1

Created 2019 Feb 13 5:18:19 UT using Find_Orb

Click here for an explanation of pseudo-MPECs

 
 Astrometry: 
     C03GTE1  C2019 02 11.28769 11 07 30.15 +51 35 31.5    ~2B7m 19.5 GVNEOCP703
     C03GTE1  C2019 02 11.29301 11 07 24.07 +51 33 07.5    ~2B7m       VNEOCP703
     C03GTE1  C2019 02 11.29833 11 07 18.44 +51 30 45.8    ~2B7m 19.5 GVNEOCP703
     C03GTE1  C2019 02 11.30365 11 07 12.59 +51 28 23.0    ~2B7m 19.5 GVNEOCP703
     C03GTE1  C2019 02 11.41784 11 05 10.78 +50 37 32.3    ~2BAI 19.4 GVNEOCPI52
     C03GTE1  C2019 02 11.41808 11 05 10.50 +50 37 25.7    ~2BAI 19.3 GVNEOCPI52
     C03GTE1  C2019 02 11.41832 11 05 10.23 +50 37 19.9    ~2BAI 19.4 GVNEOCPI52
     C03GTE1  C2019 02 11.41856 11 05 10.03 +50 37 12.9    ~2BAI 19.4 GVNEOCPI52
     C03GTE1  C2019 02 11.82369 10 59 43.42 +47 44 44.2    ~2BMI 19.2 VVNEOCP033
     C03GTE1  C2019 02 11.82448 10 59 42.81 +47 44 25.6    ~2BMI 19.1 VVNEOCP033
     C03GTE1  C2019 02 11.82528 10 59 42.20 +47 44 06.8    ~2BMI 19.1 VVNEOCP033
     C03GTE1  C2019 02 11.82607 10 59 41.59 +47 43 48.2    ~2BMI 19.1 VVNEOCP033
     C03GTE1  C2019 02 11.82686 10 59 40.97 +47 43 29.4    ~2BMI 19.1 VVNEOCP033
     C03GTE1  C2019 02 11.85751 10 59 17.14 +47 31 27.7    ~2BMI 18.7 VVNEOCP033
     C03GTE1  C2019 02 11.85831 10 59 16.55 +47 31 09.9    ~2BMI 18.9 VVNEOCP033
     C03GTE1  C2019 02 11.85910 10 59 15.92 +47 30 51.1    ~2BMI 18.9 VVNEOCP033
     C03GTE1  C2019 02 11.86147 10 59 14.08 +47 29 55.4    ~2BMI 18.8 VVNEOCP033
     C03GTE1  C2019 02 11.89610 10 58 47.18 +47 16 25.2    ~2BNI 19.1 VVNEOCP033
     C03GTE1  C2019 02 11.89701 10 58 46.47 +47 16 03.9    ~2BNI 18.8 VVNEOCP033
     C03GTE1  C2019 02 11.89794 10 58 45.77 +47 15 42.7    ~2BNI 18.5 VVNEOCP033
     C03GTE1  C2019 02 11.89885 10 58 45.10 +47 15 22.0    ~2BNI 18.5 VVNEOCP033
     C03GTE1 KC2019 02 11e,(6H0AstrometrykvPf%6g8.:wJOT1l,HCp52bU?jkgT\c^BtC_203
     C03GTE1 KC2019 02 11.99521310 57 33.12 +46 38 00.7    ~2C0I 19.8 GVNEOCPJ95
     C03GTE1 KC2019 02 11VO]#5_F,uYHPx8u?F2\+4$YX=lUeMP6*%Ma:3-.@H^:Y7;ksFZx%203
     C03GTE1 KC2019 02 11.99789810 57 31.10 +46 36 58.9    ~2C0I 19.2 GVNEOCPJ95
     C03GTE1 KC2019 02 12.00093210 57 28.84 +46 35 49.2    ~2C0I 19.5 GVNEOCPJ95
     C03GTE1 KC2019 02 12wK]VxDKe,KsLN1EBE\]jV)J.c#i8BocL;$w'0T7*f\M10!Nn\1v:L01
     C03GTE1 pC2019 02 12jd'Akkw((@UQ7?,e3fHD=bx1nAucw?MX`sJ^M,fm%ux:^'(K)hE%L01
     C03GTE1 KC2019 02 12H^V/1Zm^@3+Eb)aAC^lLe4LjhejqvA?4w(E1Oredacted;]RBw$KL01
     C03GTE1 KC2019 02 12b^'4NITrtP:nkv=#/Bv,GGy(m5!`x`h2hk@afJUZh0+W6_fY[M\LL01
     C03GTE1 KC2019 02 12#2F$G-Dq$:4Et%_`^@gW:ZaVw+pUvUvCb@oXx/Nf.km=)h*!ED[`L01
     C03GTE1  C2019 02 12.22023 10 55 10.60 +45 13 44.9    ~2C5X 20.1 GVNEOCPI52
     C03GTE1  C2019 02 12.22041 10 55 10.50 +45 13 40.8    ~2C5X 19.2 GVNEOCPI52
     C03GTE1  C2019 02 12.22060 10 55 10.41 +45 13 36.8    ~2C5X 19.6 GVNEOCPI52
     C03GTE1  C2019 02 12.22078 10 55 10.25 +45 13 32.1    ~2C5X 19.4 GVNEOCPI52
     C03GTE1 KC2019 02 12.32110510 54 02.08 +44 37 36.0    ~2C8I 18.8 GVNEOCPV03
     C03GTE1 KC2019 02 12.32322810 54 00.66 +44 36 50.0    ~2C8I 19.0 GVNEOCPV03
     C03GTE1 KC2019 02 12.32535010 53 59.27 +44 36 05.2    ~2C8I 19.0 GVNEOCPV03
     C03GTE1 KC2019 02 12Gw9j93_K1HyRWCJs'l#(7QVQw'M`NJTr=g2hSZg+kC(/.@lv0+R;V01
     C03GTE1 KC2019 02 12wZUlCqdr.+h$nPx`*tclickJ6Mer`S;HEl(T1NQ\._$DH(ly'-]UV01
     C03GTE1 KC2019 02 12va7B.sP?G(!/D:jH88*_kelOA##FHlw0]sVI7WQlAua1wSI\8o!^K88
     C03GTE1 KC2019 02 12Il_3*X+:(vL3Bmc)$:7'v)PxhNtPOt8RAR?%0$?lTEvlCZJ]qR4TK88
     C03GTE1 KC2019 02 12:5?l0qe5[i.NCT.sFQSqh$#Y_hUJO(d!VNru=SdK[aYC[NhQ=m.?K88
     C03GTE1 KC2019 02 12c\/dm76hTD-YYn9#here)s+LJH?XBy%*ZwuxZ^'uSo)QVb0%!3.t587
     C03GTE1 KC2019 02 12=R6Gggve!Z'(/4x8eT!vYcBQ\VOXd,upvC]cse.*m=rE0^T1Z3gw587
     C03GTE1 KC2019 02 12*T3*08m^:XlxLcqqs/K*C9L@DTBlFL4'*D?x\30N2\8].1F3piv/587
     C03GTE1 KC2019 02 12Rgx3LwR$Y?4.+qBYehl[WMWAVR_[?#g,2S,62Kt1vNTU:B!uTN-O204
     C03GTE1 KC2019 02 12;dGwg3(8foran46HCPDE%RM2'fKo:OaUn.KE/N2v0K7$9M]W%\]W204
     C03GTE1 KC2019 02 12CJoyrXJ=ARP=cUTAn\HQ9'3v^wFwu`JEU#rgM5.Z?KwtZriptt/!204
     C03GTE1 KC2019 02 12?[QCZ-FRtNB].a._\BW%8RySabm_t]6=qwdJLlF/T-q9CnJH`Hb0104
     C03GTE1 KC2019 02 12^=aU58s9de_M?Fy2jG78-9:p#$N5BU+ZLFia_cT#(m+:*4*QKv8?104
     C03GTE1 KC2019 02 12klq%=nZWh`\1bPoP4V08OU!KJ8]o^Ttqi6NF%.`;skhS%BciZ8E5104
     C03GTE1 KC2019 02 12.mhZ\X.]7pwRiC1-SpFgbEWexplanation%H^AJ45lHKJ0.b`:o`104

Station data:
(033) Karl Schwarzschild Observatory, Tautenburg  (N50.980140 E11.711240)
   Germany. 1.3-m Schmidt.
(104) San Marcello Pistoiese  (N44.063037 E10.804200)  Italy. 0.40-m f/5
   reflector.
(203) GiaGa Observatory  (N45.541408 E8.995500)  Italy. 0.13-m f/6.4
   refractor.
(204) Schiaparelli Observatory  (N45.867933 E8.770800)  Italy.  Observer L.
   Buzzi. 0.60-m f/4.64 Newtonian + CCD.
(587) Sormano  (N45.882949 E9.229180)  Italy.  Observers F. Manca, A. Testa.
   Measurer F. Manca. 0.5-m + CCD.
(703) Catalina Sky Survey  (N32.417006 W110.732640)  US/Arizona.  Observers
   B. M. Africano, E. J. Christensen, G. A. Farneth, D. C. Fuls, A. R. Gibbs,
   A. D. Grauer, H. Groeller, J. A. Johnson, R. A. Kowalski, S. M. Larson, G.
   J. Leonard, R. L. Seaman, F. C. Shelly. 0.68 m Schmidt + 10K CCD.
(I52) Steward Observatory, Mt. Lemmon Station  (N32.442547 W110.788920)
   US/Arizona.  Observers B. M. Africano, E. J. Christensen, G. A. Farneth,
   D. C. Fuls, A. R. Gibbs, A. D. Grauer, H. Groeller, J. A. Johnson, R. A.
   Kowalski, S. M. Larson, G. J. Leonard, R. L. Seaman, F. C. Shelly. 1.0-m
   reflector + CCD.
(J95) Great Shefford  (N51.474969 W1.447003)  UK.  Observer P. Birtwhistle.
   0.40-m f/6.0 Schmidt-Cassegrain + CCD.
(K88) GINOP-KHK, Piszkéstető  (N47.917622 E19.893600)  Hungary.  Observer K.
   Sárneczky. 0.60-m Schmidt + CCD.
(L01) Višnjan Observatory, Tičan  (N45.290900 E13.749300)  Croatia.
   Observers K. Korlević, E. Pettarin. Measurer E. Pettarin. 1.0-m f/2.9
   reflector + CCD.
(V01) Mountainville Observatory, Alpine  (N40.448904 W111.760890)  US/Utah.
(V03) Big Water  (N37.083379 W111.668600)  US/Utah.  Observer D. Rankin.
   0.30-m reflector + CCD.

Orbital elements:  C03GTE1
   Perihelion 2018 Dec 29.809364 +/- 0.0196 TT = 19:25:29 (JD 2458482.309364)
Epoch 2019 Feb 13.0 TT = JDT 2458527.5   Earth MOID: 0.0338   Ve: 0.0863
M  13.09864755 +/- 0.06             Ma: 0.0316                AutoNEOCP
n   0.28985313 +/- 0.00121          Peri.   89.71749 +/- 0.007
a   2.26126111 +/- 0.00628          Node   346.89329 +/- 0.007
e   0.6515244 +/- 0.00106           Incl.    4.26368 +/- 0.006
P   3.40                   H 24.4   G  0.15   U  8.2  
q 0.78799423 +/- 0.000203    Q 3.73452800 +/- 0.0127
From 53 observations 2019 Feb. 11-13 (41.1 hr); mean residual 0".43
Residuals in arcseconds: 
190211 703  .42+  .35+    190211 033  .15-  .30-    190212 V03  .29-  .10+    
190211 703  1.8-  .97-    190211 033  .06+  .18+    190212 V03  .08+  .48+    
190211 703  .03+  .05-    190211 033  .42+  .70+    190212 V01  .10-  1.5-    
190211 703  .24-  .26-    190211 203  .75+  .34-    190212 V01  1.1-  1.3-    
190211 I52  .30+  .38+    190211 J95  .06-  .13+    190212 K88  .45-  .10+    
190211 I52  .01-  .17+    190211 203  .18+  .14+    190212 K88  .26+  .13-    
190211 I52  .22-  .77+    190211 J95  .01-  .05-    190212 K88  .34+  1.0+    
190211 I52  .24+  .16+    190212 J95  .26+  .15-    190212 587  .05-  .63-    
190211 033  .20+  .24+    190212 L01  .17+  .29+    190212 587  .20+  .58-    
190211 033  .23+  .29+    190212 L01  .01+  .17+    190212 587  .19-  .00     
190211 033  .35+  .37+    190212 L01  .06+  .16-    190212 204  .03-  .05+    
190211 033  .38+  .41+    190212 L01  .06-  .05+    190212 204  .19-  .35+    
190211 033  .31+  .25+    190212 L01  .04-  .11-    190212 204  .06-  .35+    
190211 033  .01-  .40-    190212 I52  .29-  .40+    190212 104  .08+  .25+    
190211 033  .30+  .56+    190212 I52  .06-  .17+    190212 104  .12-  .05+    
190211 033  .14+  .30+    190212 I52  .35+  .25+    190212 104  .26+  .08+    
190211 033  .14+  .18+    190212 I52  .05-  .58-    190212 104  .21-  .01-    
190211 033  .11-  .23-    190212 V03  .34-  .89+    

Ephemerides (geocentric):
Date (UTC) HH   RA              Dec         delta   r     elong  mag " sig PA
---- -- -- --  -------------   -----------  ------ ------ -----  --- ---- ---
2019 02 13 05  10 46 35.211   +39 50 40.99  .06121 1.0409 150.4 19.7 .111 108
2019 02 13 06  10 46 17.964   +39 38 36.71  .06152 1.0413 150.6 19.7 .112 107
2019 02 13 07  10 46 00.979   +39 26 39.29  .06182 1.0417 150.8 19.7 .113 106
2019 02 13 08  10 45 44.252   +39 14 48.64  .06213 1.0421 151.0 19.7 .114 105
2019 02 13 09  10 45 27.777   +39 03 04.70  .06243 1.0424 151.2 19.7 .115 104
2019 02 13 10  10 45 11.547   +38 51 27.37  .06274 1.0428 151.4 19.7 .116 102
2019 02 13 11  10 44 55.557   +38 39 56.59  .06305 1.0432 151.6 19.7 .117 101
2019 02 13 12  10 44 39.802   +38 28 32.29  .06335 1.0436 151.8 19.7 .118 100
2019 02 13 13  10 44 24.277   +38 17 14.38  .06366 1.0439 152.0 19.7 .119  99
2019 02 13 14  10 44 08.977   +38 06 02.80  .06397 1.0443 152.2 19.7 .120  98
2019 02 13 15  10 43 53.897   +37 54 57.48  .06428 1.0447 152.4 19.7 .121  96
2019 02 13 16  10 43 39.031   +37 43 58.34  .06460 1.0451 152.6 19.7 .123  95
2019 02 13 17  10 43 24.377   +37 33 05.31  .06491 1.0455 152.7 19.8 .124  94
2019 02 13 18  10 43 09.928   +37 22 18.32  .06522 1.0458 152.9 19.8 .125  92
2019 02 13 19  10 42 55.682   +37 11 37.31  .06553 1.0462 153.1 19.8 .127  91
2019 02 13 20  10 42 41.632   +37 01 02.20  .06585 1.0466 153.3 19.8 .128  90
2019 02 13 21  10 42 27.777   +36 50 32.93  .06616 1.0470 153.5 19.8 .130  88
2019 02 13 22  10 42 14.110   +36 40 09.43  .06648 1.0474 153.6 19.8 .131  87
2019 02 13 23  10 42 00.630   +36 29 51.63  .06680 1.0477 153.8 19.8 .133  86
2019 02 14 00  10 41 47.331   +36 19 39.46  .06711 1.0481 154.0 19.8 .135  85
2019 02 14 01  10 41 34.210   +36 09 32.87  .06743 1.0485 154.2 19.8 .137  83
